owner,sensor,date,latitude,longitude,vertical_datum,sea_water_practical_salinity,qcFlag 
TCOON,ioos:station:TCOON:042:1,2011-10-01T00:00:00Z,27.8888,-97.5696,0.0,71.4,1111122 
TCOON,ioos:station:TCOON:042:1,2011-10-01T00:30:00Z,27.8888,-97.5696,0.0,71.5,1111122 
TCOON,ioos:station:TCOON:042:1,2011-10-01T01:00:00Z,27.8888,-97.5696,0.0,71.5,1111122 
TCOON,ioos:station:TCOON:042:1,2011-10-01T01:30:00Z,27.8888,-97.5696,0.0,71.5,1111122 
TCOON,ioos:station:TCOON:042:1,2011-10-01T02:00:00Z,27.8888,-97.5696,0.0,71.4,1111122 
TCOON,ioos:station:TCOON:042:1,2011-10-01T02:30:00Z,27.8888,-97.5696,0.0,71.5,1111122 
TCOON,ioos:station:TCOON:042:1,2011-10-01T03:00:00Z,27.8888,-97.5696,0.0,71.4,1111122 
TCOON,ioos:station:TCOON:042:1,2011-10-01T04:00:00Z,27.8888,-97.5696,0.0,71.4,1111122 
TCOON,ioos:station:TCOON:042:1,2011-10-01T04:30:00Z,27.8888,-97.5696,0.0,71.3,1111122 
TCOON,ioos:station:TCOON:042:1,2011-10-01T05:00:00Z,27.8888,-97.5696,0.0,71.3,1111122 
TCOON,ioos:station:TCOON:042:1,2011-10-01T05:30:00Z,27.8888,-97.5696,0.0,71.3,1111122 
TCOON,ioos:station:TCOON:042:1,2011-10-01T06:00:00Z,27.8888,-97.5696,0.0,71.2,1111122 
TCOON,ioos:station:TCOON:042:1,2011-10-01T06:30:00Z,27.8888,-97.5696,0.0,71.2,1111122 
TCOON,ioos:station:TCOON:042:1,2011-10-01T07:00:00Z,27.8888,-97.5696,0.0,71.2,1111122 
TCOON,ioos:station:TCOON:042:1,2011-10-01T07:30:00Z,27.8888,-97.5696,0.0,71.2,1111122 
TCOON,ioos:station:TCOON:042:1,2011-10-01T08:00:00Z,27.8888,-97.5696,0.0,71.1,1111122 
TCOON,ioos:station:TCOON:042:1,2011-10-01T08:30:00Z,27.8888,-97.5696,0.0,71.2,1111122 
TCOON,ioos:station:TCOON:042:1,2011-10-01T09:00:00Z,27.8888,-97.5696,0.0,71.2,1111122 
TCOON,ioos:station:TCOON:042:1,2011-10-01T09:30:00Z,27.8888,-97.5696,0.0,71.1,1111122 
TCOON,ioos:station:TCOON:042:1,2011-10-01T10:00:00Z,27.8888,-97.5696,0.0,71.2,1111122 
TCOON,ioos:station:TCOON:042:1,2011-10-01T10:30:00Z,27.8888,-97.5696,0.0,71.2,1111122 
TCOON,ioos:station:TCOON:042:1,2011-10-01T11:00:00Z,27.8888,-97.5696,0.0,71.1,1111122 
TCOON,ioos:station:TCOON:042:1,2011-10-01T11:30:00Z,27.8888,-97.5696,0.0,70.9,1111122 
TCOON,ioos:station:TCOON:042:1,2011-10-01T12:00:00Z,27.8888,-97.5696,0.0,71.0,1111122 
TCOON,ioos:station:TCOON:042:1,2011-10-01T12:30:00Z,27.8888,-97.5696,0.0,71.1,1111122 
TCOON,ioos:station:TCOON:042:1,2011-10-01T13:00:00Z,27.8888,-97.5696,0.0,71.2,1111122 
TCOON,ioos:station:TCOON:042:1,2011-10-01T13:30:00Z,27.8888,-97.5696,0.0,71.3,1111122 
TCOON,ioos:station:TCOON:042:1,2011-10-01T14:00:00Z,27.8888,-97.5696,0.0,71.3,1111122 
TCOON,ioos:station:TCOON:042:1,2011-10-01T14:30:00Z,27.8888,-97.5696,0.0,71.4,1111122 
TCOON,ioos:station:TCOON:042:1,2011-10-01T15:00:00Z,27.8888,-97.5696,0.0,71.5,1111122 
TCOON,ioos:station:TCOON:042:1,2011-10-01T15:30:00Z,27.8888,-97.5696,0.0,71.6,1111122 
TCOON,ioos:station:TCOON:042:1,2011-10-01T16:00:00Z,27.8888,-97.5696,0.0,71.7,1111122 
TCOON,ioos:station:TCOON:042:1,2011-10-01T16:30:00Z,27.8888,-97.5696,0.0,71.8,1111122 
TCOON,ioos:station:TCOON:042:1,2011-10-01T17:00:00Z,27.8888,-97.5696,0.0,71.9,1111122 
TCOON,ioos:station:TCOON:042:1,2011-10-01T17:30:00Z,27.8888,-97.5696,0.0,71.9,1111122 
TCOON,ioos:station:TCOON:042:1,2011-10-01T18:00:00Z,27.8888,-97.5696,0.0,72.0,1111122 
TCOON,ioos:station:TCOON:042:1,2011-10-01T18:30:00Z,27.8888,-97.5696,0.0,72.1,1111122 
TCOON,ioos:station:TCOON:042:1,2011-10-01T19:00:00Z,27.8888,-97.5696,0.0,72.1,1111122 
TCOON,ioos:station:TCOON:042:1,2011-10-01T20:00:00Z,27.8888,-97.5696,0.0,72.1,1111122 
TCOON,ioos:station:TCOON:042:1,2011-10-01T20:30:00Z,27.8888,-97.5696,0.0,72.1,1111122 
TCOON,ioos:station:TCOON:042:1,2011-10-01T21:00:00Z,27.8888,-97.5696,0.0,72.1,1111122 
TCOON,ioos:station:TCOON:042:1,2011-10-01T21:30:00Z,27.8888,-97.5696,0.0,72.0,1111122 
TCOON,ioos:station:TCOON:042:1,2011-10-01T22:00:00Z,27.8888,-97.5696,0.0,71.9,1111122 
TCOON,ioos:station:TCOON:042:1,2011-10-01T22:30:00Z,27.8888,-97.5696,0.0,71.8,1111122 
TCOON,ioos:station:TCOON:042:1,2011-10-01T23:30:00Z,27.8888,-97.5696,0.0,71.5,1111122 
TCOON,ioos:station:TCOON:042:1,2011-10-02T00:00:00Z,27.8888,-97.5696,0.0,71.4,1111122 
TCOON,ioos:station:TCOON:042:1,2011-10-02T00:30:00Z,27.8888,-97.5696,0.0,71.3,1111122 
TCOON,ioos:station:TCOON:042:1,2011-10-02T01:00:00Z,27.8888,-97.5696,0.0,71.1,1111122 
TCOON,ioos:station:TCOON:042:1,2011-10-02T01:30:00Z,27.8888,-97.5696,0.0,70.9,1111122 
TCOON,ioos:station:TCOON:042:1,2011-10-02T02:00:00Z,27.8888,-97.5696,0.0,70.8,1111122 
TCOON,ioos:station:TCOON:042:1,2011-10-02T02:30:00Z,27.8888,-97.5696,0.0,70.6,1111122 
TCOON,ioos:station:TCOON:042:1,2011-10-02T03:00:00Z,27.8888,-97.5696,0.0,70.4,1111122 
TCOON,ioos:station:TCOON:042:1,2011-10-02T03:30:00Z,27.8888,-97.5696,0.0,70.3,1111122 
TCOON,ioos:station:TCOON:042:1,2011-10-02T04:00:00Z,27.8888,-97.5696,0.0,70.1,1111122 
TCOON,ioos:station:TCOON:042:1,2011-10-02T04:30:00Z,27.8888,-97.5696,0.0,69.9,1111122 
TCOON,ioos:station:TCOON:042:1,2011-10-02T05:00:00Z,27.8888,-97.5696,0.0,69.7,1111122 
TCOON,ioos:station:TCOON:042:1,2011-10-02T05:30:00Z,27.8888,-97.5696,0.0,69.4,1111122 
TCOON,ioos:station:TCOON:042:1,2011-10-02T06:00:00Z,27.8888,-97.5696,0.0,69.2,1111122 
TCOON,ioos:station:TCOON:042:1,2011-10-02T06:30:00Z,27.8888,-97.5696,0.0,68.9,1111122 
TCOON,ioos:station:TCOON:042:1,2011-10-02T07:00:00Z,27.8888,-97.5696,0.0,68.6,1111122 
TCOON,ioos:station:TCOON:042:1,2011-10-02T07:30:00Z,27.8888,-97.5696,0.0,68.3,1111122 
TCOON,ioos:station:TCOON:042:1,2011-10-02T08:30:00Z,27.8888,-97.5696,0.0,68.1,1111122 
TCOON,ioos:station:TCOON:042:1,2011-10-02T09:00:00Z,27.8888,-97.5696,0.0,67.9,1111122 
TCOON,ioos:station:TCOON:042:1,2011-10-02T09:30:00Z,27.8888,-97.5696,0.0,67.6,1111122 
TCOON,ioos:station:TCOON:042:1,2011-10-02T10:00:00Z,27.8888,-97.5696,0.0,67.4,1111122 
TCOON,ioos:station:TCOON:042:1,2011-10-02T10:30:00Z,27.8888,-97.5696,0.0,67.2,1111122 
TCOON,ioos:station:TCOON:042:1,2011-10-02T11:00:00Z,27.8888,-97.5696,0.0,67.0,1111122 
TCOON,ioos:station:TCOON:042:1,2011-10-02T12:00:00Z,27.8888,-97.5696,0.0,66.6,1111122 
TCOON,ioos:station:TCOON:042:1,2011-10-02T12:30:00Z,27.8888,-97.5696,0.0,66.4,1111122 
TCOON,ioos:station:TCOON:042:1,2011-10-02T13:00:00Z,27.8888,-97.5696,0.0,66.2,1111122 
TCOON,ioos:station:TCOON:042:1,2011-10-02T13:30:00Z,27.8888,-97.5696,0.0,66.0,1111122 
TCOON,ioos:station:TCOON:042:1,2011-10-02T14:00:00Z,27.8888,-97.5696,0.0,65.9,1111122 
TCOON,ioos:station:TCOON:042:1,2011-10-02T14:30:00Z,27.8888,-97.5696,0.0,65.7,1111122 
TCOON,ioos:station:TCOON:042:1,2011-10-02T15:00:00Z,27.8888,-97.5696,0.0,65.6,1111122 
TCOON,ioos:station:TCOON:042:1,2011-10-02T15:30:00Z,27.8888,-97.5696,0.0,65.4,1111122 
TCOON,ioos:station:TCOON:042:1,2011-10-02T16:00:00Z,27.8888,-97.5696,0.0,65.2,1111122 
TCOON,ioos:station:TCOON:042:1,2011-10-02T16:30:00Z,27.8888,-97.5696,0.0,65.0,1111122 
TCOON,ioos:station:TCOON:042:1,2011-10-02T17:00:00Z,27.8888,-97.5696,0.0,64.7,1111122 
TCOON,ioos:station:TCOON:042:1,2011-10-02T17:30:00Z,27.8888,-97.5696,0.0,64.4,1111122 
TCOON,ioos:station:TCOON:042:1,2011-10-02T18:00:00Z,27.8888,-97.5696,0.0,64.1,1111122 
TCOON,ioos:station:TCOON:042:1,2011-10-02T18:30:00Z,27.8888,-97.5696,0.0,63.7,1111122 
TCOON,ioos:station:TCOON:042:1,2011-10-02T19:00:00Z,27.8888,-97.5696,0.0,63.4,1111122 
TCOON,ioos:station:TCOON:042:1,2011-10-02T20:30:00Z,27.8888,-97.5696,0.0,62.4,1111122 
TCOON,ioos:station:TCOON:042:1,2011-10-02T21:00:00Z,27.8888,-97.5696,0.0,62.0,1111122 
TCOON,ioos:station:TCOON:042:1,2011-10-02T21:30:00Z,27.8888,-97.5696,0.0,61.7,1111122 
TCOON,ioos:station:TCOON:042:1,2011-10-02T22:00:00Z,27.8888,-97.5696,0.0,61.5,1111122 
TCOON,ioos:station:TCOON:042:1,2011-10-02T23:00:00Z,27.8888,-97.5696,0.0,60.9,1111122 
TCOON,ioos:station:TCOON:042:1,2011-10-03T00:30:00Z,27.8888,-97.5696,0.0,60.3,1111122 
TCOON,ioos:station:TCOON:042:1,2011-10-03T01:00:00Z,27.8888,-97.5696,0.0,60.2,1111122 
TCOON,ioos:station:TCOON:042:1,2011-10-03T01:30:00Z,27.8888,-97.5696,0.0,60.1,1111122 
TCOON,ioos:station:TCOON:042:1,2011-10-03T02:00:00Z,27.8888,-97.5696,0.0,60.0,1111122 
TCOON,ioos:station:TCOON:042:1,2011-10-03T02:30:00Z,27.8888,-97.5696,0.0,60.0,1111122 
TCOON,ioos:station:TCOON:042:1,2011-10-03T03:00:00Z,27.8888,-97.5696,0.0,59.9,1111122 
TCOON,ioos:station:TCOON:042:1,2011-10-03T03:30:00Z,27.8888,-97.5696,0.0,60.1,1111122 
TCOON,ioos:station:TCOON:042:1,2011-10-03T04:00:00Z,27.8888,-97.5696,0.0,60.1,1111122 
TCOON,ioos:station:TCOON:042:1,2011-10-03T05:00:00Z,27.8888,-97.5696,0.0,61.0,1111122 
TCOON,ioos:station:TCOON:042:1,2011-10-03T05:30:00Z,27.8888,-97.5696,0.0,61.4,1111122 
TCOON,ioos:station:TCOON:042:1,2011-10-03T06:00:00Z,27.8888,-97.5696,0.0,61.8,1111122 
TCOON,ioos:station:TCOON:042:1,2011-10-03T06:30:00Z,27.8888,-97.5696,0.0,62.1,1111122 
TCOON,ioos:station:TCOON:042:1,2011-10-03T07:00:00Z,27.8888,-97.5696,0.0,62.2,1111122 
TCOON,ioos:station:TCOON:042:1,2011-10-03T07:30:00Z,27.8888,-97.5696,0.0,62.4,1111122 
TCOON,ioos:station:TCOON:042:1,2011-10-03T08:00:00Z,27.8888,-97.5696,0.0,62.6,1111122 
TCOON,ioos:station:TCOON:042:1,2011-10-03T09:00:00Z,27.8888,-97.5696,0.0,62.8,1111122 
TCOON,ioos:station:TCOON:042:1,2011-10-03T09:30:00Z,27.8888,-97.5696,0.0,62.9,1111122 
TCOON,ioos:station:TCOON:042:1,2011-10-03T10:00:00Z,27.8888,-97.5696,0.0,62.9,1111122 
TCOON,ioos:station:TCOON:042:1,2011-10-03T10:30:00Z,27.8888,-97.5696,0.0,63.0,1111122 
TCOON,ioos:station:TCOON:042:1,2011-10-03T11:00:00Z,27.8888,-97.5696,0.0,63.1,1111122 
TCOON,ioos:station:TCOON:042:1,2011-10-03T11:30:00Z,27.8888,-97.5696,0.0,63.1,1111122 
TCOON,ioos:station:TCOON:042:1,2011-10-03T12:00:00Z,27.8888,-97.5696,0.0,63.2,1111122 
TCOON,ioos:station:TCOON:042:1,2011-10-03T12:30:00Z,27.8888,-97.5696,0.0,63.2,1111122 
TCOON,ioos:station:TCOON:042:1,2011-10-03T13:00:00Z,27.8888,-97.5696,0.0,63.3,1111122 
TCOON,ioos:station:TCOON:042:1,2011-10-03T13:30:00Z,27.8888,-97.5696,0.0,63.3,1111122 
TCOON,ioos:station:TCOON:042:1,2011-10-03T14:00:00Z,27.8888,-97.5696,0.0,63.3,1111122 
TCOON,ioos:station:TCOON:042:1,2011-10-03T14:30:00Z,27.8888,-97.5696,0.0,63.4,1111122 
TCOON,ioos:station:TCOON:042:1,2011-10-03T15:00:00Z,27.8888,-97.5696,0.0,63.4,1111122 
TCOON,ioos:station:TCOON:042:1,2011-10-03T15:30:00Z,27.8888,-97.5696,0.0,63.3,1111122 
TCOON,ioos:station:TCOON:042:1,2011-10-03T16:00:00Z,27.8888,-97.5696,0.0,63.3,1111122 
TCOON,ioos:station:TCOON:042:1,2011-10-03T16:30:00Z,27.8888,-97.5696,0.0,63.2,1111122 
TCOON,ioos:station:TCOON:042:1,2011-10-03T17:00:00Z,27.8888,-97.5696,0.0,63.2,1111122 
TCOON,ioos:station:TCOON:042:1,2011-10-03T17:30:00Z,27.8888,-97.5696,0.0,63.1,1111122 
TCOON,ioos:station:TCOON:042:1,2011-10-03T18:00:00Z,27.8888,-97.5696,0.0,63.0,1111122 
TCOON,ioos:station:TCOON:042:1,2011-10-03T18:30:00Z,27.8888,-97.5696,0.0,62.9,1111122 
TCOON,ioos:station:TCOON:042:1,2011-10-03T19:00:00Z,27.8888,-97.5696,0.0,62.8,1111122 
TCOON,ioos:station:TCOON:042:1,2011-10-03T20:00:00Z,27.8888,-97.5696,0.0,62.5,1111122 
TCOON,ioos:station:TCOON:042:1,2011-10-03T20:30:00Z,27.8888,-97.5696,0.0,62.4,1111122 
TCOON,ioos:station:TCOON:042:1,2011-10-03T21:30:00Z,27.8888,-97.5696,0.0,62.1,1111122 
TCOON,ioos:station:TCOON:042:1,2011-10-03T22:00:00Z,27.8888,-97.5696,0.0,62.0,1111122 
TCOON,ioos:station:TCOON:042:1,2011-10-03T22:30:00Z,27.8888,-97.5696,0.0,61.9,1111122 
TCOON,ioos:station:TCOON:042:1,2011-10-03T23:00:00Z,27.8888,-97.5696,0.0,61.7,1111122 
TCOON,ioos:station:TCOON:042:1,2011-10-03T23:30:00Z,27.8888,-97.5696,0.0,61.6,1111122 
TCOON,ioos:station:TCOON:042:1,2011-10-04T00:00:00Z,27.8888,-97.5696,0.0,61.6,1111122 
TCOON,ioos:station:TCOON:042:1,2011-10-04T00:30:00Z,27.8888,-97.5696,0.0,61.5,1111122 
TCOON,ioos:station:TCOON:042:1,2011-10-04T01:30:00Z,27.8888,-97.5696,0.0,61.5,1111122 
TCOON,ioos:station:TCOON:042:1,2011-10-04T02:00:00Z,27.8888,-97.5696,0.0,61.5,1111122 
TCOON,ioos:station:TCOON:042:1,2011-10-04T02:30:00Z,27.8888,-97.5696,0.0,61.5,1111122 
TCOON,ioos:station:TCOON:042:1,2011-10-04T03:30:00Z,27.8888,-97.5696,0.0,61.5,1111122 
TCOON,ioos:station:TCOON:042:1,2011-10-04T04:00:00Z,27.8888,-97.5696,0.0,61.7,1111122 
TCOON,ioos:station:TCOON:042:1,2011-10-04T04:30:00Z,27.8888,-97.5696,0.0,61.9,1111122 
TCOON,ioos:station:TCOON:042:1,2011-10-04T05:00:00Z,27.8888,-97.5696,0.0,62.1,1111122 
TCOON,ioos:station:TCOON:042:1,2011-10-04T05:30:00Z,27.8888,-97.5696,0.0,62.3,1111122 
TCOON,ioos:station:TCOON:042:1,2011-10-04T06:00:00Z,27.8888,-97.5696,0.0,62.5,1111122 
TCOON,ioos:station:TCOON:042:1,2011-10-04T06:30:00Z,27.8888,-97.5696,0.0,62.6,1111122 
TCOON,ioos:station:TCOON:042:1,2011-10-04T07:00:00Z,27.8888,-97.5696,0.0,62.7,1111122 
TCOON,ioos:station:TCOON:042:1,2011-10-04T07:30:00Z,27.8888,-97.5696,0.0,62.8,1111122 
TCOON,ioos:station:TCOON:042:1,2011-10-04T08:00:00Z,27.8888,-97.5696,0.0,62.9,1111122 
TCOON,ioos:station:TCOON:042:1,2011-10-04T08:30:00Z,27.8888,-97.5696,0.0,62.9,1111122 
TCOON,ioos:station:TCOON:042:1,2011-10-04T09:00:00Z,27.8888,-97.5696,0.0,63.0,1111122 
TCOON,ioos:station:TCOON:042:1,2011-10-04T09:30:00Z,27.8888,-97.5696,0.0,63.0,1111122 
TCOON,ioos:station:TCOON:042:1,2011-10-04T10:00:00Z,27.8888,-97.5696,0.0,63.1,1111122 
TCOON,ioos:station:TCOON:042:1,2011-10-04T11:00:00Z,27.8888,-97.5696,0.0,63.2,1111122 
TCOON,ioos:station:TCOON:042:1,2011-10-04T11:30:00Z,27.8888,-97.5696,0.0,63.3,1111122 
TCOON,ioos:station:TCOON:042:1,2011-10-04T12:00:00Z,27.8888,-97.5696,0.0,63.3,1111122 
TCOON,ioos:station:TCOON:042:1,2011-10-04T12:30:00Z,27.8888,-97.5696,0.0,63.3,1111122 
TCOON,ioos:station:TCOON:042:1,2011-10-04T13:00:00Z,27.8888,-97.5696,0.0,63.4,1111122 
TCOON,ioos:station:TCOON:042:1,2011-10-04T13:30:00Z,27.8888,-97.5696,0.0,63.4,1111122 
TCOON,ioos:station:TCOON:042:1,2011-10-04T14:30:00Z,27.8888,-97.5696,0.0,63.6,1111122 
TCOON,ioos:station:TCOON:042:1,2011-10-04T15:00:00Z,27.8888,-97.5696,0.0,63.6,1111122 
TCOON,ioos:station:TCOON:042:1,2011-10-04T15:30:00Z,27.8888,-97.5696,0.0,63.7,1111122 
TCOON,ioos:station:TCOON:042:1,2011-10-04T16:00:00Z,27.8888,-97.5696,0.0,64.1,1111122 
TCOON,ioos:station:TCOON:042:1,2011-10-04T16:30:00Z,27.8888,-97.5696,0.0,64.6,1111122 
TCOON,ioos:station:TCOON:042:1,2011-10-04T17:00:00Z,27.8888,-97.5696,0.0,64.2,1111122 
TCOON,ioos:station:TCOON:042:1,2011-10-04T18:00:00Z,27.8888,-97.5696,0.0,63.8,1111122 
TCOON,ioos:station:TCOON:042:1,2011-10-04T18:30:00Z,27.8888,-97.5696,0.0,63.8,1111122 
TCOON,ioos:station:TCOON:042:1,2011-10-04T19:00:00Z,27.8888,-97.5696,0.0,63.8,1111122 
TCOON,ioos:station:TCOON:042:1,2011-10-04T19:30:00Z,27.8888,-97.5696,0.0,63.9,1111122 
TCOON,ioos:station:TCOON:042:1,2011-10-04T20:00:00Z,27.8888,-97.5696,0.0,63.9,1111122 
TCOON,ioos:station:TCOON:042:1,2011-10-04T20:30:00Z,27.8888,-97.5696,0.0,63.9,1111122 
TCOON,ioos:station:TCOON:042:1,2011-10-04T21:00:00Z,27.8888,-97.5696,0.0,63.9,1111122 
TCOON,ioos:station:TCOON:042:1,2011-10-04T21:30:00Z,27.8888,-97.5696,0.0,63.9,1111122 
TCOON,ioos:station:TCOON:042:1,2011-10-04T22:00:00Z,27.8888,-97.5696,0.0,63.9,1111122 
TCOON,ioos:station:TCOON:042:1,2011-10-04T22:30:00Z,27.8888,-97.5696,0.0,63.9,1111122 
TCOON,ioos:station:TCOON:042:1,2011-10-04T23:00:00Z,27.8888,-97.5696,0.0,63.9,1111122 
TCOON,ioos:station:TCOON:042:1,2011-10-05T00:00:00Z,27.8888,-97.5696,0.0,63.9,1111122 
TCOON,ioos:station:TCOON:042:1,2011-10-05T00:30:00Z,27.8888,-97.5696,0.0,63.9,1111122 
TCOON,ioos:station:TCOON:042:1,2011-10-05T01:00:00Z,27.8888,-97.5696,0.0,63.9,1111122 
TCOON,ioos:station:TCOON:042:1,2011-10-05T01:30:00Z,27.8888,-97.5696,0.0,63.9,1111122 
TCOON,ioos:station:TCOON:042:1,2011-10-05T02:00:00Z,27.8888,-97.5696,0.0,63.9,1111122 
TCOON,ioos:station:TCOON:042:1,2011-10-05T02:30:00Z,27.8888,-97.5696,0.0,63.9,1111122 
TCOON,ioos:station:TCOON:042:1,2011-10-05T03:00:00Z,27.8888,-97.5696,0.0,63.9,1111122 
TCOON,ioos:station:TCOON:042:1,2011-10-05T03:30:00Z,27.8888,-97.5696,0.0,63.9,1111122 
TCOON,ioos:station:TCOON:042:1,2011-10-05T04:00:00Z,27.8888,-97.5696,0.0,63.9,1111122 
TCOON,ioos:station:TCOON:042:1,2011-10-05T04:30:00Z,27.8888,-97.5696,0.0,63.9,1111122 
TCOON,ioos:station:TCOON:042:1,2011-10-05T05:00:00Z,27.8888,-97.5696,0.0,64.0,1111122 
TCOON,ioos:station:TCOON:042:1,2011-10-05T05:30:00Z,27.8888,-97.5696,0.0,64.0,1111122 
TCOON,ioos:station:TCOON:042:1,2011-10-05T06:00:00Z,27.8888,-97.5696,0.0,64.1,1111122 
TCOON,ioos:station:TCOON:042:1,2011-10-05T06:30:00Z,27.8888,-97.5696,0.0,64.2,1111122 
TCOON,ioos:station:TCOON:042:1,2011-10-05T07:30:00Z,27.8888,-97.5696,0.0,64.3,1111122 
TCOON,ioos:station:TCOON:042:1,2011-10-05T08:00:00Z,27.8888,-97.5696,0.0,64.3,1111122 
TCOON,ioos:station:TCOON:042:1,2011-10-05T08:30:00Z,27.8888,-97.5696,0.0,64.4,1111122 
TCOON,ioos:station:TCOON:042:1,2011-10-05T09:00:00Z,27.8888,-97.5696,0.0,64.4,1111122 
TCOON,ioos:station:TCOON:042:1,2011-10-05T09:30:00Z,27.8888,-97.5696,0.0,64.5,1111122 
TCOON,ioos:station:TCOON:042:1,2011-10-05T10:00:00Z,27.8888,-97.5696,0.0,64.5,1111122 
TCOON,ioos:station:TCOON:042:1,2011-10-05T11:00:00Z,27.8888,-97.5696,0.0,64.6,1111122 
TCOON,ioos:station:TCOON:042:1,2011-10-05T11:30:00Z,27.8888,-97.5696,0.0,64.7,1111122 
TCOON,ioos:station:TCOON:042:1,2011-10-05T12:00:00Z,27.8888,-97.5696,0.0,64.7,1111122 
TCOON,ioos:station:TCOON:042:1,2011-10-05T12:30:00Z,27.8888,-97.5696,0.0,64.8,1111122 
TCOON,ioos:station:TCOON:042:1,2011-10-05T13:00:00Z,27.8888,-97.5696,0.0,64.8,1111122 
TCOON,ioos:station:TCOON:042:1,2011-10-05T13:30:00Z,27.8888,-97.5696,0.0,64.9,1111122 
TCOON,ioos:station:TCOON:042:1,2011-10-05T14:00:00Z,27.8888,-97.5696,0.0,64.9,1111122 
TCOON,ioos:station:TCOON:042:1,2011-10-05T14:30:00Z,27.8888,-97.5696,0.0,65.0,1111122 
TCOON,ioos:station:TCOON:042:1,2011-10-05T15:00:00Z,27.8888,-97.5696,0.0,65.0,1111122 
TCOON,ioos:station:TCOON:042:1,2011-10-05T15:30:00Z,27.8888,-97.5696,0.0,65.1,1111122 
TCOON,ioos:station:TCOON:042:1,2011-10-05T16:00:00Z,27.8888,-97.5696,0.0,65.2,1111122 
TCOON,ioos:station:TCOON:042:1,2011-10-05T16:30:00Z,27.8888,-97.5696,0.0,65.3,1111122 
TCOON,ioos:station:TCOON:042:1,2011-10-05T17:00:00Z,27.8888,-97.5696,0.0,65.3,1111122 
TCOON,ioos:station:TCOON:042:1,2011-10-05T17:30:00Z,27.8888,-97.5696,0.0,65.2,1111122 
TCOON,ioos:station:TCOON:042:1,2011-10-05T18:30:00Z,27.8888,-97.5696,0.0,65.3,1111122 
TCOON,ioos:station:TCOON:042:1,2011-10-05T19:30:00Z,27.8888,-97.5696,0.0,65.4,1111122 
TCOON,ioos:station:TCOON:042:1,2011-10-05T20:00:00Z,27.8888,-97.5696,0.0,65.5,1111122 
TCOON,ioos:station:TCOON:042:1,2011-10-05T20:30:00Z,27.8888,-97.5696,0.0,65.5,1111122 
TCOON,ioos:station:TCOON:042:1,2011-10-05T21:00:00Z,27.8888,-97.5696,0.0,65.6,1111122 
TCOON,ioos:station:TCOON:042:1,2011-10-05T21:30:00Z,27.8888,-97.5696,0.0,65.6,1111122 
TCOON,ioos:station:TCOON:042:1,2011-10-05T22:00:00Z,27.8888,-97.5696,0.0,65.6,1111122 
TCOON,ioos:station:TCOON:042:1,2011-10-05T22:30:00Z,27.8888,-97.5696,0.0,65.7,1111122 
TCOON,ioos:station:TCOON:042:1,2011-10-05T23:00:00Z,27.8888,-97.5696,0.0,65.7,1111122 
TCOON,ioos:station:TCOON:042:1,2011-10-05T23:30:00Z,27.8888,-97.5696,0.0,65.7,1111122 
TCOON,ioos:station:TCOON:042:1,2011-10-06T00:00:00Z,27.8888,-97.5696,0.0,65.7,1111122 
TCOON,ioos:station:TCOON:042:1,2011-10-06T00:30:00Z,27.8888,-97.5696,0.0,65.7,1111122 
TCOON,ioos:station:TCOON:042:1,2011-10-06T01:00:00Z,27.8888,-97.5696,0.0,65.7,1111122 
TCOON,ioos:station:TCOON:042:1,2011-10-06T01:30:00Z,27.8888,-97.5696,0.0,65.7,1111122 
TCOON,ioos:station:TCOON:042:1,2011-10-06T02:00:00Z,27.8888,-97.5696,0.0,65.7,1111122 
TCOON,ioos:station:TCOON:042:1,2011-10-06T02:30:00Z,27.8888,-97.5696,0.0,65.7,1111122 
TCOON,ioos:station:TCOON:042:1,2011-10-06T03:00:00Z,27.8888,-97.5696,0.0,65.6,1111122 
TCOON,ioos:station:TCOON:042:1,2011-10-06T03:30:00Z,27.8888,-97.5696,0.0,65.6,1111122 
TCOON,ioos:station:TCOON:042:1,2011-10-06T04:00:00Z,27.8888,-97.5696,0.0,65.6,1111122 
TCOON,ioos:station:TCOON:042:1,2011-10-06T04:30:00Z,27.8888,-97.5696,0.0,65.5,1111122 
TCOON,ioos:station:TCOON:042:1,2011-10-06T06:00:00Z,27.8888,-97.5696,0.0,65.4,1111122 
TCOON,ioos:station:TCOON:042:1,2011-10-06T06:30:00Z,27.8888,-97.5696,0.0,65.3,1111122 
TCOON,ioos:station:TCOON:042:1,2011-10-06T07:00:00Z,27.8888,-97.5696,0.0,65.3,1111122 
TCOON,ioos:station:TCOON:042:1,2011-10-06T07:30:00Z,27.8888,-97.5696,0.0,65.3,1111122 
TCOON,ioos:station:TCOON:042:1,2011-10-06T08:00:00Z,27.8888,-97.5696,0.0,65.3,1111122 
TCOON,ioos:station:TCOON:042:1,2011-10-06T08:30:00Z,27.8888,-97.5696,0.0,65.3,1111122 
TCOON,ioos:station:TCOON:042:1,2011-10-06T09:00:00Z,27.8888,-97.5696,0.0,65.3,1111122 
TCOON,ioos:station:TCOON:042:1,2011-10-06T09:30:00Z,27.8888,-97.5696,0.0,65.4,1111122 
TCOON,ioos:station:TCOON:042:1,2011-10-06T10:00:00Z,27.8888,-97.5696,0.0,65.4,1111122 
TCOON,ioos:station:TCOON:042:1,2011-10-06T10:30:00Z,27.8888,-97.5696,0.0,65.4,1111122 
TCOON,ioos:station:TCOON:042:1,2011-10-06T11:00:00Z,27.8888,-97.5696,0.0,65.5,1111122 
TCOON,ioos:station:TCOON:042:1,2011-10-06T11:30:00Z,27.8888,-97.5696,0.0,65.5,1111122 
TCOON,ioos:station:TCOON:042:1,2011-10-06T12:00:00Z,27.8888,-97.5696,0.0,65.5,1111122 
TCOON,ioos:station:TCOON:042:1,2011-10-06T13:00:00Z,27.8888,-97.5696,0.0,65.6,1111122 
TCOON,ioos:station:TCOON:042:1,2011-10-06T13:30:00Z,27.8888,-97.5696,0.0,65.6,1111122 
TCOON,ioos:station:TCOON:042:1,2011-10-06T14:00:00Z,27.8888,-97.5696,0.0,65.6,1111122 
TCOON,ioos:station:TCOON:042:1,2011-10-06T14:30:00Z,27.8888,-97.5696,0.0,65.7,1111122 
TCOON,ioos:station:TCOON:042:1,2011-10-06T15:00:00Z,27.8888,-97.5696,0.0,65.7,1111122 
TCOON,ioos:station:TCOON:042:1,2011-10-06T15:30:00Z,27.8888,-97.5696,0.0,65.7,1111122 
TCOON,ioos:station:TCOON:042:1,2011-10-06T16:30:00Z,27.8888,-97.5696,0.0,65.8,1111122 
TCOON,ioos:station:TCOON:042:1,2011-10-06T17:00:00Z,27.8888,-97.5696,0.0,65.8,1111122 
TCOON,ioos:station:TCOON:042:1,2011-10-06T17:30:00Z,27.8888,-97.5696,0.0,65.8,1111122 
TCOON,ioos:station:TCOON:042:1,2011-10-06T18:00:00Z,27.8888,-97.5696,0.0,65.8,1111122 
TCOON,ioos:station:TCOON:042:1,2011-10-06T18:30:00Z,27.8888,-97.5696,0.0,65.7,1111122 
TCOON,ioos:station:TCOON:042:1,2011-10-06T19:00:00Z,27.8888,-97.5696,0.0,65.7,1111122 
TCOON,ioos:station:TCOON:042:1,2011-10-06T20:00:00Z,27.8888,-97.5696,0.0,65.6,1111122 
TCOON,ioos:station:TCOON:042:1,2011-10-06T20:30:00Z,27.8888,-97.5696,0.0,65.6,1111122 
TCOON,ioos:station:TCOON:042:1,2011-10-06T21:00:00Z,27.8888,-97.5696,0.0,65.5,1111122 
TCOON,ioos:station:TCOON:042:1,2011-10-06T21:30:00Z,27.8888,-97.5696,0.0,65.4,1111122 
TCOON,ioos:station:TCOON:042:1,2011-10-06T22:00:00Z,27.8888,-97.5696,0.0,65.3,1111122 
TCOON,ioos:station:TCOON:042:1,2011-10-06T22:30:00Z,27.8888,-97.5696,0.0,65.2,1111122 
TCOON,ioos:station:TCOON:042:1,2011-10-06T23:00:00Z,27.8888,-97.5696,0.0,65.0,1111122 
TCOON,ioos:station:TCOON:042:1,2011-10-06T23:30:00Z,27.8888,-97.5696,0.0,64.9,1111122 
TCOON,ioos:station:TCOON:042:1,2011-10-07T00:00:00Z,27.8888,-97.5696,0.0,64.8,1111122 
TCOON,ioos:station:TCOON:042:1,2011-10-07T00:30:00Z,27.8888,-97.5696,0.0,64.7,1111122 
TCOON,ioos:station:TCOON:042:1,2011-10-07T01:00:00Z,27.8888,-97.5696,0.0,64.5,1111122 
TCOON,ioos:station:TCOON:042:1,2011-10-07T01:30:00Z,27.8888,-97.5696,0.0,64.4,1111122 
TCOON,ioos:station:TCOON:042:1,2011-10-07T02:00:00Z,27.8888,-97.5696,0.0,64.3,1111122 
TCOON,ioos:station:TCOON:042:1,2011-10-07T02:30:00Z,27.8888,-97.5696,0.0,64.2,1111122 
TCOON,ioos:station:TCOON:042:1,2011-10-07T03:00:00Z,27.8888,-97.5696,0.0,64.0,1111122 
TCOON,ioos:station:TCOON:042:1,2011-10-07T03:30:00Z,27.8888,-97.5696,0.0,63.9,1111122 
TCOON,ioos:station:TCOON:042:1,2011-10-07T04:00:00Z,27.8888,-97.5696,0.0,63.8,1111122 
TCOON,ioos:station:TCOON:042:1,2011-10-07T04:30:00Z,27.8888,-97.5696,0.0,63.7,1111122 
TCOON,ioos:station:TCOON:042:1,2011-10-07T05:00:00Z,27.8888,-97.5696,0.0,63.5,1111122 
TCOON,ioos:station:TCOON:042:1,2011-10-07T05:30:00Z,27.8888,-97.5696,0.0,63.4,1111122 
TCOON,ioos:station:TCOON:042:1,2011-10-07T06:30:00Z,27.8888,-97.5696,0.0,63.2,1111122 
TCOON,ioos:station:TCOON:042:1,2011-10-07T07:00:00Z,27.8888,-97.5696,0.0,63.2,1111122 
TCOON,ioos:station:TCOON:042:1,2011-10-07T07:30:00Z,27.8888,-97.5696,0.0,63.1,1111122 